Location: Newark
(46.5000°N, 6.3833°E)
Time: 06:44:15
(UTC+00:00)

Envisat - Visible Passes

Search period start: 22 August 2019 00:00
Search period end: 01 September 2019 00:00
Orbit: 764 x 766 km, 98.1° (Epoch: 21 August)

Date Brightness Start Highest point End Pass type
(mag) Time Alt. Az. Time Alt. Az. Time Alt. Az.
22 Aug 5.8 19:02:53 10° SW 19:06:24 19° W 19:09:56 10° NW visible
24 Aug 6.4 19:31:14 10° W 19:32:16 11° W 19:33:18 10° WNW visible
25 Aug 5.7 18:51:03 10° SW 18:55:02 23° W 18:59:03 10° NW visible
27 Aug 6.0 19:18:21 10° WSW 19:20:51 14° W 19:23:21 10° WNW visible
30 Aug 5.9 19:06:11 10° SW 19:09:27 17° W 19:12:45 10° NW visible
